| time (UTC) | temp C | wind direction | speed KPH | gust KPH | rain 1hr cm | rain 24hr cm | rain mn cm | humidity % | barometer mb |
| 20260505071138 | 17 | 200 | 3.2 | 4.8 | 0.00 | 0.00 | 0.00 | 69 | 1004.8 |
| 20260505070635 | 17 | 84 | 1.6 | 1.6 | 0.00 | 0.00 | 0.00 | 70 | 1004.9 |
| 20260505070131 | 17 | 338 | 1.6 | 3.2 | 0.00 | 0.00 | 0.00 | 70 | 1005.2 |
| 20260505065627 | 17 | 195 | 1.6 | 1.6 | 0.00 | 0.00 | 0.00 | 70 | 1005.2 |
| 20260505065124 | 17 | 215 | 1.6 | 3.2 | 0.00 | 0.00 | 0.00 | 70 | 1005.1 |
| 20260505064621 | 17 | 131 | 3.2 | 3.2 | 0.00 | 0.00 | 0.00 | 70 | 1005.2 |
| 20260505064119 | 17 | 104 | 3.2 | 3.2 | 0.00 | 0.00 | 0.00 | 69 | 1005.2 |
| 20260505063616 | 17 | 170 | 3.2 | 6.4 | 0.00 | 0.00 | 0.00 | 69 | 1005.4 |
| 20260505063112 | 17 | 72 | 1.6 | 3.2 | 0.00 | 0.00 | 0.00 | 69 | 1005.2 |
| 20260505062609 | 17 | 144 | 4.8 | 6.4 | 0.00 | 0.00 | 0.00 | 69 | 1005.2 |
| 20260505062106 | 17 | 93 | 1.6 | 3.2 | 0.00 | 0.00 | 0.00 | 69 | 1005.5 |
| 20260505061603 | 17 | 234 | 3.2 | 4.8 | 0.00 | 0.00 | 0.00 | 69 | 1005.4 |
| 20260505061101 | 17 | 155 | 4.8 | 4.8 | 0.00 | 0.00 | 0.00 | 69 | 1005.2 |
| 20260505060558 | 17 | 127 | 3.2 | 3.2 | 0.00 | 0.00 | 0.00 | 69 | 1005.3 |
| 20260505060055 | 17 | 44 | 1.6 | 3.2 | 0.00 | 0.00 | 0.00 | 69 | 1005.4 |
| 20260505055550 | 17 | 100 | 1.6 | 1.6 | 0.00 | 0.00 | 0.00 | 69 | 1005.2 |
| 20260505055047 | 17 | 206 | 6.4 | 9.7 | 0.00 | 0.00 | 0.00 | 69 | 1005.3 |
| 20260505054545 | 17 | 79 | 3.2 | 3.2 | 0.00 | 0.00 | 0.00 | 69 | 1005.5 |
| 20260505054043 | 17 | 138 | 3.2 | 3.2 | 0.00 | 0.00 | 0.00 | 68 | 1005.2 |
| 20260505053539 | 17 | 98 | 1.6 | 1.6 | 0.00 | 0.00 | 0.00 | 69 | 1005.5 |
| 20260505053036 | 17 | 95 | 1.6 | 3.2 | 0.00 | 0.00 | 0.00 | 68 | 1005.6 |
| 20260505052533 | 17 | 248 | 3.2 | 6.4 | 0.00 | 0.00 | 0.00 | 68 | 1005.9 |
| 20260505052031 | 17 | 92 | 0.0 | 1.6 | 0.00 | 0.00 | 0.00 | 68 | 1005.6 |
| 20260505051527 | 17 | 109 | 1.6 | 1.6 | 0.00 | 0.00 | 0.00 | 68 | 1005.7 |
| 20260505051025 | 17 | 156 | 1.6 | 1.6 | 0.00 | 0.00 | 0.00 | 68 | 1005.9 |
| 20260505050523 | 17 | 64 | 1.6 | 1.6 | 0.00 | 0.00 | 0.00 | 68 | 1005.9 |
| 20260505041451 | 18 | 78 | 0.0 | 1.6 | 0.00 | 0.00 | 0.00 | 66 | 1006.4 |
| 20260505040948 | 18 | 79 | 1.6 | 3.2 | 0.00 | 0.00 | 0.00 | 65 | 1006.5 |
| 20260505040446 | 18 | 72 | 0.0 | 1.6 | 0.00 | 0.00 | 0.00 | 65 | 1006.6 |
| 20260505035942 | 18 | 32 | 1.6 | 3.2 | 0.00 | 0.00 | 0.00 | 65 | 1006.6 |
| 20260505035438 | 18 | 119 | 1.6 | 1.6 | 0.00 | 0.00 | 0.00 | 65 | 1006.6 |
| 20260505034936 | 18 | 89 | 1.6 | 1.6 | 0.00 | 0.00 | 0.00 | 64 | 1006.8 |
| 20260505034432 | 18 | 82 | 3.2 | 4.8 | 0.00 | 0.00 | 0.00 | 64 | 1006.6 |
| 20260505033929 | 18 | 321 | 3.2 | 3.2 | 0.00 | 0.00 | 0.00 | 64 | 1007.1 |
| 20260505033426 | 18 | 176 | 1.6 | 3.2 | 0.00 | 0.00 | 0.00 | 64 | 1006.9 |
| 20260505032924 | 18 | 114 | 1.6 | 3.2 | 0.00 | 0.00 | 0.00 | 64 | 1006.9 |
| 20260505032421 | 18 | 100 | 1.6 | 1.6 | 0.00 | 0.00 | 0.00 | 64 | 1007.0 |
| 20260505031918 | 19 | 144 | 4.8 | 6.4 | 0.00 | 0.00 | 0.00 | 64 | 1006.9 |
| 20260505031414 | 19 | 146 | 4.8 | 6.4 | 0.00 | 0.00 | 0.00 | 63 | 1006.8 |
| 20260505030911 | 19 | 143 | 3.2 | 3.2 | 0.00 | 0.00 | 0.00 | 62 | 1006.8 |
| 20260505030407 | 19 | 204 | 1.6 | 3.2 | 0.00 | 0.00 | 0.00 | 62 | 1006.5 |
| 20260505025902 | 19 | 212 | 3.2 | 3.2 | 0.00 | 0.00 | 0.00 | 62 | 1006.5 |
| 20260505025400 | 19 | 81 | 1.6 | 3.2 | 0.00 | 0.00 | 0.00 | 62 | 1006.8 |
| 20260505024859 | 20 | 202 | 3.2 | 4.8 | 0.00 | 0.00 | 0.00 | 62 | 1006.4 |
| 20260505024356 | 20 | 92 | 3.2 | 4.8 | 0.00 | 0.00 | 0.00 | 61 | 1006.4 |
| 20260505023853 | 20 | 104 | 1.6 | 1.6 | 0.00 | 0.00 | 0.00 | 61 | 1006.2 |
| 20260505023350 | 20 | 108 | 3.2 | 3.2 | 0.00 | 0.00 | 0.00 | 60 | 1006.2 |
| 20260505022847 | 20 | 85 | 1.6 | 1.6 | 0.00 | 0.00 | 0.00 | 60 | 1006.1 |
| 20260505022344 | 20 | 271 | 4.8 | 4.8 | 0.00 | 0.00 | 0.00 | 60 | 1005.9 |
| 20260505021842 | 20 | 196 | 0.0 | 1.6 | 0.00 | 0.00 | 0.00 | 60 | 1006.0 |
| 20260505021338 | 20 | 80 | 3.2 | 4.8 | 0.00 | 0.00 | 0.00 | 60 | 1005.9 |
| 20260505020834 | 20 | 89 | 0.0 | 1.6 | 0.00 | 0.00 | 0.00 | 60 | 1005.9 |
| 20260505020330 | 20 | 68 | 0.0 | 1.6 | 0.00 | 0.00 | 0.00 | 60 | 1005.8 |
| 20260505015827 | 20 | 80 | 0.0 | 0.0 | 0.00 | 0.00 | 0.00 | 59 | 1005.8 |
| 20260505015324 | 20 | 144 | 1.6 | 1.6 | 0.00 | 0.00 | 0.00 | 58 | 1005.8 |
| 20260505014821 | 20 | 88 | 1.6 | 1.6 | 0.00 | 0.00 | 0.00 | 58 | 1005.5 |
| 20260505014318 | 21 | 80 | 0.0 | 0.0 | 0.00 | 0.00 | 0.00 | 57 | 1005.5 |
| 20260505013814 | 21 | 92 | 0.0 | 1.6 | 0.00 | 0.00 | 0.00 | 56 | 1005.4 |
| 20260505013312 | 21 | 100 | 1.6 | 3.2 | 0.00 | 0.00 | 0.00 | 55 | 1005.3 |
| 20260505012810 | 21 | 349 | 0.0 | 1.6 | 0.00 | 0.00 | 0.00 | 55 | 1005.2 |
| 20260505012307 | 21 | 88 | 1.6 | 1.6 | 0.00 | 0.00 | 0.00 | 55 | 1005.4 |
| 20260505011803 | 21 | 84 | 0.0 | 0.0 | 0.00 | 0.00 | 0.00 | 54 | 1005.0 |
| 20260505011300 | 21 | 102 | 1.6 | 1.6 | 0.00 | 0.00 | 0.00 | 54 | 1005.3 |
| 20260505010756 | 21 | 129 | 1.6 | 1.6 | 0.00 | 0.00 | 0.00 | 53 | 1005.2 |
| 20260505010252 | 22 | 89 | 1.6 | 3.2 | 0.00 | 0.00 | 0.00 | 53 | 1004.9 |
| 20260505005748 | 22 | 109 | 3.2 | 4.8 | 0.00 | 0.00 | 0.00 | 52 | 1005.0 |
| 20260505005246 | 22 | 44 | 3.2 | 3.2 | 0.00 | 0.00 | 0.00 | 52 | 1004.9 |
| 20260505004743 | 22 | 250 | 1.6 | 3.2 | 0.00 | 0.00 | 0.00 | 51 | 1004.7 |
| 20260505004239 | 22 | 11 | 1.6 | 1.6 | 0.00 | 0.00 | 0.00 | 50 | 1004.7 |
| 20260505003736 | 22 | 99 | 0.0 | 0.0 | 0.00 | 0.00 | 0.00 | 50 | 1004.9 |
| 20260505003234 | 23 | 95 | 0.0 | 0.0 | 0.00 | 0.00 | 0.00 | 48 | 1004.7 |
| 20260505002730 | 23 | 104 | 3.2 | 6.4 | 0.00 | 0.00 | 0.00 | 48 | 1004.4 |
| 20260505002228 | 23 | 134 | 3.2 | 3.2 | 0.00 | 0.00 | 0.00 | 47 | 1004.7 |
| 20260505001725 | 23 | 206 | 0.0 | 1.6 | 0.00 | 0.00 | 0.00 | 46 | 1004.6 |
| 20260505001223 | 23 | 117 | 3.2 | 4.8 | 0.00 | 0.00 | 0.00 | 46 | 1004.6 |
| 20260505000719 | 24 | 84 | 3.2 | 3.2 | 0.00 | 0.00 | 0.00 | 46 | 1004.9 |
| 20260505000218 | 24 | 223 | 3.2 | 4.8 | 0.00 | 0.00 | 0.00 | 45 | 1004.6 |
| 20260504235713 | 24 | 74 | 3.2 | 4.8 | 0.00 | 0.00 | 0.00 | 45 | 1004.7 |
| 20260504235209 | 24 | 157 | 3.2 | 4.8 | 0.00 | 0.00 | 0.00 | 44 | 1004.8 |
| 20260504234707 | 25 | 203 | 3.2 | 6.4 | 0.00 | 0.00 | 0.00 | 44 | 1004.7 |
| 20260504234204 | 25 | 276 | 3.2 | 6.4 | 0.00 | 0.00 | 0.00 | 44 | 1004.8 |
| 20260504233700 | 25 | 182 | 4.8 | 6.4 | 0.00 | 0.00 | 0.00 | 44 | 1004.6 |
| 20260504233156 | 25 | 299 | 3.2 | 4.8 | 0.00 | 0.00 | 0.00 | 44 | 1004.5 |
| 20260504232654 | 25 | 96 | 3.2 | 4.8 | 0.00 | 0.00 | 0.00 | 45 | 1004.5 |
| 20260504232150 | 25 | 200 | 3.2 | 6.4 | 0.00 | 0.00 | 0.00 | 44 | 1004.5 |
| 20260504231647 | 25 | 181 | 4.8 | 4.8 | 0.00 | 0.00 | 0.00 | 44 | 1004.4 |
| 20260504231143 | 26 | 6 | 1.6 | 1.6 | 0.00 | 0.00 | 0.00 | 43 | 1004.5 |
| 20260504230640 | 26 | 72 | 3.2 | 3.2 | 0.00 | 0.00 | 0.00 | 41 | 1004.5 |
| 20260504230139 | 26 | 115 | 3.2 | 4.8 | 0.00 | 0.00 | 0.00 | 38 | 1004.7 |
| 20260504225637 | 26 | 113 | 3.2 | 3.2 | 0.00 | 0.00 | 0.00 | 36 | 1004.9 |
| 20260504225132 | 26 | 311 | 3.2 | 3.2 | 0.00 | 0.00 | 0.00 | 36 | 1004.8 |
| 20260504224629 | 27 | 130 | 6.4 | 9.7 | 0.00 | 0.00 | 0.00 | 35 | 1004.6 |
| 20260504224126 | 27 | 101 | 6.4 | 9.7 | 0.00 | 0.00 | 0.00 | 36 | 1004.8 |
| 20260504223623 | 26 | 103 | 3.2 | 4.8 | 0.00 | 0.00 | 0.00 | 36 | 1004.8 |
| 20260504223119 | 27 | 251 | 6.4 | 9.7 | 0.00 | 0.00 | 0.00 | 36 | 1004.9 |
| 20260504222616 | 27 | 140 | 4.8 | 6.4 | 0.00 | 0.00 | 0.00 | 36 | 1004.8 |
| 20260504222114 | 27 | 30 | 0.0 | 1.6 | 0.00 | 0.00 | 0.00 | 36 | 1004.8 |
| 20260504221610 | 27 | 235 | 4.8 | 6.4 | 0.00 | 0.00 | 0.00 | 36 | 1005.0 |
| 20260504221108 | 27 | 96 | 3.2 | 4.8 | 0.00 | 0.00 | 0.00 | 36 | 1004.9 |
| 20260504220604 | 27 | 225 | 4.8 | 6.4 | 0.00 | 0.00 | 0.00 | 36 | 1005.0 |
| 20260504220101 | 27 | 228 | 4.8 | 6.4 | 0.00 | 0.00 | 0.00 | 36 | 1004.9 |
| 20260504215557 | 27 | 109 | 1.6 | 1.6 | 0.00 | 0.00 | 0.00 | 36 | 1005.0 |
| 20260504215055 | 27 | 76 | 3.2 | 4.8 | 0.00 | 0.00 | 0.00 | 35 | 1004.9 |
| 20260504214550 | 28 | 285 | 6.4 | 9.7 | 0.00 | 0.00 | 0.00 | 35 | 1005.1 |
| 20260504214047 | 27 | 175 | 3.2 | 3.2 | 0.00 | 0.00 | 0.00 | 37 | 1005.0 |
| 20260504213544 | 28 | 327 | 4.8 | 11.3 | 0.00 | 0.00 | 0.00 | 35 | 1005.1 |
| 20260504213041 | 27 | 262 | 3.2 | 6.4 | 0.00 | 0.00 | 0.00 | 38 | 1005.1 |
| 20260504212537 | 27 | 352 | 6.4 | 6.4 | 0.00 | 0.00 | 0.00 | 36 | 1004.9 |
| 20260504212034 | 27 | 310 | 3.2 | 3.2 | 0.00 | 0.00 | 0.00 | 36 | 1005.3 |
| 20260504211531 | 27 | 42 | 4.8 | 6.4 | 0.00 | 0.00 | 0.00 | 36 | 1005.1 |
| 20260504211028 | 27 | 313 | 3.2 | 3.2 | 0.00 | 0.00 | 0.00 | 36 | 1005.2 |
| 20260504210525 | 27 | 82 | 4.8 | 6.4 | 0.00 | 0.00 | 0.00 | 36 | 1005.3 |
| 20260504210022 | 27 | 57 | 4.8 | 6.4 | 0.00 | 0.00 | 0.00 | 36 | 1005.3 |
| 20260504205520 | 27 | 254 | 3.2 | 4.8 | 0.00 | 0.00 | 0.00 | 37 | 1005.4 |
| 20260504205017 | 27 | 214 | 3.2 | 4.8 | 0.00 | 0.00 | 0.00 | 36 | 1005.5 |
| 20260504204515 | 27 | 247 | 9.7 | 12.9 | 0.00 | 0.00 | 0.00 | 36 | 1005.4 |
| 20260504204014 | 27 | 112 | 3.2 | 3.2 | 0.00 | 0.00 | 0.00 | 37 | 1005.6 |
| 20260504203512 | 27 | 140 | 6.4 | 11.3 | 0.00 | 0.00 | 0.00 | 36 | 1005.7 |
| 20260504203009 | 27 | 249 | 6.4 | 6.4 | 0.00 | 0.00 | 0.00 | 35 | 1005.7 |
| 20260504202504 | 27 | 40 | 3.2 | 4.8 | 0.00 | 0.00 | 0.00 | 36 | 1005.8 |
| 20260504202001 | 27 | 224 | 3.2 | 4.8 | 0.00 | 0.00 | 0.00 | 36 | 1005.8 |
| 20260504201458 | 27 | 50 | 9.7 | 12.9 | 0.00 | 0.00 | 0.00 | 37 | 1005.9 |
| 20260504200955 | 27 | 312 | 4.8 | 4.8 | 0.00 | 0.00 | 0.00 | 36 | 1005.9 |
| 20260504200452 | 28 | 173 | 4.8 | 6.4 | 0.00 | 0.00 | 0.00 | 37 | 1006.0 |
| 20260504195949 | 27 | 241 | 1.6 | 1.6 | 0.00 | 0.00 | 0.00 | 37 | 1006.1 |
| 20260504195445 | 27 | 230 | 4.8 | 4.8 | 0.00 | 0.00 | 0.00 | 35 | 1006.0 |
| 20260504194942 | 27 | 269 | 3.2 | 4.8 | 0.00 | 0.00 | 0.00 | 36 | 1006.1 |
| 20260504194438 | 27 | 163 | 8.0 | 11.3 | 0.00 | 0.00 | 0.00 | 35 | 1005.8 |
| 20260504193934 | 27 | 341 | 1.6 | 3.2 | 0.00 | 0.00 | 0.00 | 38 | 1006.1 |
| 20260504193431 | 27 | 7 | 6.4 | 6.4 | 0.00 | 0.00 | 0.00 | 36 | 1006.2 |
| 20260504192930 | 27 | 183 | 6.4 | 9.7 | 0.00 | 0.00 | 0.00 | 35 | 1006.1 |
| 20260504192426 | 27 | 179 | 8.0 | 12.9 | 0.00 | 0.00 | 0.00 | 36 | 1006.3 |
| 20260504191926 | 27 | 109 | 3.2 | 4.8 | 0.00 | 0.00 | 0.00 | 38 | 1006.3 |
| 20260504191423 | 27 | 229 | 4.8 | 6.4 | 0.00 | 0.00 | 0.00 | 38 | 1006.3 |
| 20260504190918 | 27 | 301 | 3.2 | 11.3 | 0.00 | 0.00 | 0.00 | 37 | 1006.3 |
| 20260504190414 | 27 | 147 | 3.2 | 3.2 | 0.00 | 0.00 | 0.00 | 37 | 1006.3 |
| 20260504185911 | 27 | 128 | 3.2 | 4.8 | 0.00 | 0.00 | 0.00 | 37 | 1006.3 |
| 20260504185408 | 27 | 178 | 4.8 | 6.4 | 0.00 | 0.00 | 0.00 | 36 | 1006.5 |
| 20260504184904 | 27 | 228 | 11.3 | 16.1 | 0.00 | 0.00 | 0.00 | 36 | 1006.3 |
| 20260504184400 | 26 | 307 | 11.3 | 22.5 | 0.00 | 0.00 | 0.00 | 37 | 1006.6 |
| 20260504183856 | 26 | 259 | 9.7 | 11.3 | 0.00 | 0.00 | 0.00 | 38 | 1006.4 |
| 20260504183354 | 26 | 277 | 4.8 | 6.4 | 0.00 | 0.00 | 0.00 | 39 | 1006.5 |
| 20260504182851 | 26 | 135 | 8.0 | 9.7 | 0.00 | 0.00 | 0.00 | 38 | 1006.5 |
| 20260504182348 | 27 | 235 | 3.2 | 4.8 | 0.00 | 0.00 | 0.00 | 38 | 1006.6 |
| 20260504181845 | 27 | 97 | 4.8 | 4.8 | 0.00 | 0.00 | 0.00 | 38 | 1006.6 |
| 20260504181342 | 26 | 100 | 1.6 | 3.2 | 0.00 | 0.00 | 0.00 | 39 | 1006.5 |
| 20260504180841 | 26 | 195 | 6.4 | 9.7 | 0.00 | 0.00 | 0.00 | 39 | 1006.5 |
| 20260504180339 | 26 | 206 | 4.8 | 6.4 | 0.00 | 0.00 | 0.00 | 39 | 1006.4 |
| 20260504175837 | 26 | 258 | 3.2 | 4.8 | 0.00 | 0.00 | 0.00 | 39 | 1006.8 |
| 20260504175333 | 26 | 271 | 4.8 | 9.7 | 0.00 | 0.00 | 0.00 | 39 | 1006.6 |
| 20260504174832 | 26 | 358 | 4.8 | 6.4 | 0.00 | 0.00 | 0.00 | 39 | 1006.6 |
| 20260504174329 | 26 | 85 | 6.4 | 9.7 | 0.00 | 0.00 | 0.00 | 40 | 1006.8 |
| 20260504173826 | 26 | 158 | 3.2 | 4.8 | 0.00 | 0.00 | 0.00 | 39 | 1006.9 |
| 20260504173323 | 26 | 165 | 6.4 | 9.7 | 0.00 | 0.00 | 0.00 | 40 | 1006.9 |
| 20260504172820 | 26 | 166 | 3.2 | 4.8 | 0.00 | 0.00 | 0.00 | 40 | 1006.9 |
| 20260504172316 | 25 | 110 | 3.2 | 4.8 | 0.00 | 0.00 | 0.00 | 40 | 1006.9 |
| 20260504171812 | 25 | 359 | 6.4 | 9.7 | 0.00 | 0.00 | 0.00 | 39 | 1007.1 |
| 20260504171309 | 25 | 163 | 4.8 | 6.4 | 0.00 | 0.00 | 0.00 | 39 | 1007.1 |
| 20260504170806 | 25 | 270 | 4.8 | 6.4 | 0.00 | 0.00 | 0.00 | 39 | 1007.3 |
| 20260504170303 | 25 | 73 | 3.2 | 4.8 | 0.00 | 0.00 | 0.00 | 39 | 1007.2 |
| 20260504160221 | 24 | 206 | 4.8 | 6.4 | 0.00 | 0.00 | 0.00 | 42 | 1008.0 |
| 20260504151150 | 22 | 162 | 4.8 | 6.4 | 0.00 | 0.00 | 0.00 | 45 | 1008.4 |
| 20260504150647 | 22 | 167 | 6.4 | 6.4 | 0.00 | 0.00 | 0.00 | 46 | 1008.4 |
| 20260504150144 | 22 | 266 | 4.8 | 6.4 | 0.00 | 0.00 | 0.00 | 46 | 1008.4 |
| 20260504141113 | 20 | 42 | 4.8 | 6.4 | 0.00 | 0.00 | 0.00 | 52 | 1009.0 |
| 20260504140609 | 19 | 271 | 1.6 | 3.2 | 0.00 | 0.00 | 0.00 | 52 | 1009.0 |
| 20260504140105 | 19 | 94 | 4.8 | 4.8 | 0.00 | 0.00 | 0.00 | 52 | 1008.9 |
| 20260504130533 | 17 | 251 | 3.2 | 3.2 | 0.00 | 0.00 | 0.00 | 57 | 1009.2 |
| 20260504110421 | 15 | 232 | 3.2 | 3.2 | 0.00 | 0.00 | 0.00 | 62 | 1009.0 |
| 20260504100337 | 15 | 122 | 1.6 | 3.2 | 0.00 | 0.00 | 0.00 | 61 | 1009.5 |
| 20260504081731 | 16 | 134 | 1.6 | 3.2 | 0.00 | 0.00 | 0.00 | 58 | 1009.5 |
| 20260504081227 | 16 | 288 | 3.2 | 4.8 | 0.00 | 0.00 | 0.00 | 58 | 1009.5 |
| 20260504080724 | 16 | 177 | 1.6 | 1.6 | 0.00 | 0.00 | 0.00 | 58 | 1009.7 |
| 20260504080220 | 16 | 145 | 3.2 | 3.2 | 0.00 | 0.00 | 0.00 | 58 | 1009.7 |